When you browse on this site, cookies collect data to enhance your experience and personalize the content and advertising you see.
Visit our Privacy Policy to learn more. By continuing to use the site, you agree to this use of cookies and data.
  • In Lithuania
  • List of Countries
  • For 7 days
  • Water Temperature
  • Satellite Maps
  • Weather Map
  • Weather Widgets
  • user-avatar
    Login

    Hourly Weather San Miguel de Tucumán

    Today, 19 July, Friday

    Time Temperature Precipitation Wind Pressure Humidity
    00:00 +16°C° 0 mm 1 mps 724 mmHg 68%
    01:00 +14°C° 0 mm 0 mps 724 mmHg 72%
    02:00 +14°C° 0 mm 1 mps 724 mmHg 75%
    03:00 +14°C° 0 mm 1 mps 724 mmHg 77%
    04:00 +12°C° 0 mm 0 mps 723 mmHg 80%
    05:00 +12°C° 0 mm 0 mps 722 mmHg 82%
    06:00 +12°C° 0 mm 0 mps 722 mmHg 81%
    07:00 +12°C° 0 mm 0 mps 722 mmHg 80%
    08:00 +14°C° 0 mm 1 mps 722 mmHg 77%
    09:00 +16°C° 0 mm 1 mps 722 mmHg 69%
    10:00 +18°C° 0 mm 2 mps 722 mmHg 61%
    11:00 +20°C° 0 mm 2 mps 722 mmHg 53%
    12:00 +21°C° 0 mm 2 mps 721 mmHg 51%
    13:00 +23°C° 0 mm 2 mps 720 mmHg 49%
    14:00 +24°C° 0 mm 2 mps 720 mmHg 47%
    15:00 +24°C° 0 mm 2 mps 719 mmHg 49%
    16:00 +23°C° 0 mm 2 mps 719 mmHg 52%
    17:00 +23°C° 0 mm 1 mps 718 mmHg 55%
    18:00 +21°C° 0 mm 1 mps 718 mmHg 60%
    19:00 +19°C° 0 mm 1 mps 718 mmHg 66%
    20:00 +18°C° 0 mm 1 mps 718 mmHg 72%
    21:00 +16°C° 0 mm 1 mps 718 mmHg 73%
    22:00 +16°C° 0 mm 1 mps 718 mmHg 75%
    23:00 +15°C° 0 mm 1 mps 717 mmHg 76%

    Tomorrow, 20 July, Saturday

    Time Temperature Precipitation Wind Pressure Humidity
    00:00 +15°C° 0 mm 1 mps 717 mmHg 76%
    01:00 +15°C° 0 mm 1 mps 716 mmHg 76%
    02:00 +15°C° 0 mm 1 mps 716 mmHg 76%
    03:00 +15°C° 0 mm 1 mps 715 mmHg 76%
    04:00 +14°C° 0 mm 1 mps 715 mmHg 76%
    05:00 +14°C° 0 mm 1 mps 715 mmHg 76%
    06:00 +14°C° 0 mm 1 mps 715 mmHg 74%
    07:00 +14°C° 0 mm 0 mps 715 mmHg 71%
    08:00 +14°C° 0 mm 0 mps 715 mmHg 69%
    09:00 +18°C° 0 mm 1 mps 715 mmHg 61%
    10:00 +21°C° 0 mm 1 mps 715 mmHg 54%
    11:00 +24°C° 0 mm 1 mps 715 mmHg 46%
    12:00 +25°C° 0 mm 1 mps 714 mmHg 44%
    13:00 +26°C° 0 mm 1 mps 714 mmHg 41%
    14:00 +27°C° 0 mm 1 mps 713 mmHg 39%
    15:00 +27°C° 0 mm 1 mps 712 mmHg 42%
    16:00 +26°C° 0 mm 1 mps 712 mmHg 45%
    17:00 +26°C° 0 mm 1 mps 712 mmHg 48%
    18:00 +24°C° 0 mm 1 mps 712 mmHg 51%
    19:00 +22°C° 0 mm 1 mps 712 mmHg 54%
    20:00 +21°C° 0 mm 1 mps 712 mmHg 58%
    21:00 +21°C° 0 mm 1 mps 711 mmHg 58%
    22:00 +20°C° 0 mm 1 mps 711 mmHg 59%
    23:00 +20°C° 0 mm 1 mps 711 mmHg 59%

    Day after tomorrow, 21 July, Sunday

    Time Temperature Precipitation Wind Pressure Humidity
    00:00 +20°C° 0 mm 1 mps 710 mmHg 56%
    01:00 +19°C° 0 mm 1 mps 710 mmHg 53%
    02:00 +19°C° 0 mm 1 mps 709 mmHg 49%
    03:00 +18°C° 0 mm 1 mps 709 mmHg 45%
    04:00 +18°C° 0 mm 1 mps 709 mmHg 41%
    05:00 +17°C° 0 mm 2 mps 708 mmHg 37%
    06:00 +17°C° 0 mm 2 mps 709 mmHg 36%
    07:00 +18°C° 0 mm 2 mps 709 mmHg 34%
    08:00 +18°C° 0 mm 2 mps 709 mmHg 32%
    09:00 +22°C° 0 mm 1 mps 710 mmHg 28%
    10:00 +25°C° 0 mm 1 mps 710 mmHg 24%
    11:00 +28°C° 0 mm 1 mps 710 mmHg 20%
    12:00 +29°C° 0 mm 1 mps 710 mmHg 19%
    13:00 +31°C° 0 mm 1 mps 709 mmHg 18%
    14:00 +32°C° 0 mm 2 mps 709 mmHg 17%
    15:00 +30°C° 0 mm 2 mps 709 mmHg 21%
    16:00 +29°C° 0 mm 2 mps 709 mmHg 25%
    17:00 +28°C° 0 mm 1 mps 709 mmHg 29%
    18:00 +26°C° 0 mm 2 mps 710 mmHg 30%
    19:00 +24°C° 0 mm 2 mps 711 mmHg 32%
    20:00 +23°C° 0 mm 2 mps 711 mmHg 33%
    21:00 +21°C° 0 mm 2 mps 712 mmHg 37%
    22:00 +21°C° 0 mm 2 mps 713 mmHg 40%
    23:00 +20°C° 0 mm 2 mps 714 mmHg 43%

    22 July, Monday

    Time Temperature Precipitation Wind Pressure Humidity
    00:00 +19°C° 0 mm 2 mps 714 mmHg 52%
    01:00 +18°C° 0 mm 2 mps 715 mmHg 60%
    02:00 +17°C° 0 mm 3 mps 715 mmHg 69%
    03:00 +16°C° 0 mm 3 mps 716 mmHg 65%
    04:00 +16°C° 0 mm 3 mps 717 mmHg 61%
    05:00 +15°C° 0 mm 2 mps 717 mmHg 57%
    06:00 +14°C° 0 mm 3 mps 718 mmHg 57%
    07:00 +13°C° 0 mm 3 mps 719 mmHg 56%
    08:00 +13°C° 0 mm 3 mps 720 mmHg 55%
    09:00 +13°C° 0 mm 3 mps 720 mmHg 50%
    10:00 +13°C° 0 mm 3 mps 720 mmHg 44%
    11:00 +13°C° 0 mm 3 mps 720 mmHg 38%
    12:00 +14°C° 0 mm 3 mps 720 mmHg 36%
    13:00 +16°C° 0 mm 3 mps 720 mmHg 34%
    14:00 +17°C° 0 mm 3 mps 719 mmHg 31%
    15:00 +16°C° 0 mm 3 mps 719 mmHg 31%
    16:00 +16°C° 0 mm 3 mps 719 mmHg 30%
    17:00 +15°C° 0 mm 2 mps 720 mmHg 29%
    18:00 +14°C° 0 mm 2 mps 720 mmHg 31%
    19:00 +13°C° 0 mm 1 mps 721 mmHg 33%
    20:00 +11°C° 0 mm 1 mps 721 mmHg 35%
    21:00 +10°C° 0 mm 1 mps 722 mmHg 36%
    22:00 +10°C° 0 mm 1 mps 722 mmHg 37%
    23:00 +9°C° 0 mm 1 mps 723 mmHg 38%

    23 July, Tuesday

    Time Temperature Precipitation Wind Pressure Humidity
    00:00 +9°C° 0 mm 1 mps 723 mmHg 40%
    01:00 +8°C° 0 mm 1 mps 722 mmHg 41%
    02:00 +7°C° 0 mm 2 mps 722 mmHg 42%
    03:00 +6°C° 0 mm 2 mps 722 mmHg 43%
    04:00 +6°C° 0 mm 2 mps 723 mmHg 43%
    05:00 +6°C° 0 mm 2 mps 723 mmHg 43%
    06:00 +7°C° 0 mm 2 mps 723 mmHg 42%
    07:00 +8°C° 0 mm 1 mps 724 mmHg 41%
    08:00 +9°C° 0 mm 1 mps 725 mmHg 39%
    09:00 +10°C° 0 mm 2 mps 725 mmHg 35%
    10:00 +13°C° 0 mm 2 mps 725 mmHg 30%
    11:00 +15°C° 0 mm 2 mps 726 mmHg 26%
    12:00 +14°C° 0 mm 3 mps 725 mmHg 25%
    13:00 +16°C° 0 mm 3 mps 725 mmHg 24%
    14:00 +15°C° 0 mm 4 mps 724 mmHg 23%
    15:00 +16°C° 0 mm 3 mps 724 mmHg 24%
    16:00 +14°C° 0 mm 3 mps 724 mmHg 25%
    17:00 +14°C° 0 mm 3 mps 725 mmHg 26%
    18:00 +13°C° 0 mm 2 mps 725 mmHg 30%
    19:00 +10°C° 0 mm 2 mps 726 mmHg 35%
    20:00 +9°C° 0 mm 1 mps 727 mmHg 39%
    21:00 +8°C° 0 mm 1 mps 728 mmHg 40%
    22:00 +8°C° 0 mm 1 mps 728 mmHg 42%
    23:00 +7°C° 0 mm 1 mps 729 mmHg 43%

    24 July, Wednesday

    Time Temperature Precipitation Wind Pressure Humidity
    00:00 +7°C° 0 mm 1 mps 729 mmHg 43%
    01:00 +7°C° 0 mm 1 mps 729 mmHg 44%
    02:00 +6°C° 0 mm 1 mps 729 mmHg 44%
    03:00 +6°C° 0 mm 1 mps 729 mmHg 45%
    04:00 +6°C° 0 mm 1 mps 729 mmHg 45%
    05:00 +6°C° 0 mm 1 mps 729 mmHg 46%
    06:00 +6°C° 0 mm 1 mps 730 mmHg 44%
    07:00 +7°C° 0 mm 1 mps 730 mmHg 43%
    08:00 +7°C° 0 mm 1 mps 730 mmHg 42%
    09:00 +10°C° 0 mm 1 mps 731 mmHg 36%
    10:00 +12°C° 0 mm 1 mps 731 mmHg 31%
    11:00 +15°C° 0 mm 1 mps 731 mmHg 25%
    12:00 +15°C° 0 mm 2 mps 730 mmHg 24%
    13:00 +16°C° 0 mm 2 mps 730 mmHg 23%
    14:00 +16°C° 0 mm 2 mps 729 mmHg 21%
    15:00 +16°C° 0 mm 2 mps 729 mmHg 24%
    16:00 +15°C° 0 mm 2 mps 729 mmHg 26%
    17:00 +15°C° 0 mm 2 mps 729 mmHg 28%
    18:00 +13°C° 0 mm 2 mps 729 mmHg 32%
    19:00 +11°C° 0 mm 1 mps 729 mmHg 37%
    20:00 +9°C° 0 mm 1 mps 730 mmHg 41%
    21:00 +9°C° 0 mm 1 mps 730 mmHg 42%
    22:00 +8°C° 0 mm 1 mps 730 mmHg 43%
    23:00 +8°C° 0 mm 1 mps 730 mmHg 45%
    Show more